TimeMDT,TemperatureF,Dew PointF,Humidity,Sea Level PressureIn,VisibilityMPH,Wind Direction,Wind SpeedMPH,Gust SpeedMPH,PrecipitationIn,Events,Conditions,WindDirDegrees,DateUTC
12:15 AM,44.6,32.0,61,30.01,10.0,WSW,9.2,-,N/A,,Clear,240,2014-04-09 06:15:00
12:35 AM,42.8,30.2,61,30.01,10.0,SW,10.4,-,N/A,,Clear,230,2014-04-09 06:35:00
12:55 AM,42.8,32.0,66,30.01,10.0,WSW,9.2,-,N/A,,Clear,240,2014-04-09 06:55:00
1:15 AM,42.8,32.0,66,30.00,10.0,WSW,6.9,-,N/A,,Clear,240,2014-04-09 07:15:00
1:35 AM,41.0,30.2,65,29.99,10.0,SW,6.9,-,N/A,,Clear,230,2014-04-09 07:35:00
1:55 AM,41.0,30.2,65,29.98,10.0,WSW,6.9,-,N/A,,Clear,240,2014-04-09 07:55:00
2:15 AM,41.0,32.0,70,29.98,10.0,WSW,9.2,-,N/A,,Clear,240,2014-04-09 08:15:00
2:35 AM,41.0,30.2,65,29.97,10.0,West,9.2,-,N/A,,Clear,260,2014-04-09 08:35:00
2:55 AM,42.8,32.0,66,29.97,10.0,West,10.4,-,N/A,,Clear,260,2014-04-09 08:55:00
3:15 AM,42.8,32.0,66,29.97,10.0,West,11.5,-,N/A,,Clear,270,2014-04-09 09:15:00
3:35 AM,42.8,32.0,66,29.96,10.0,West,11.5,-,N/A,,Clear,260,2014-04-09 09:35:00
3:55 AM,44.6,32.0,61,29.96,10.0,West,9.2,-,N/A,,Clear,270,2014-04-09 09:55:00
4:15 AM,44.6,32.0,61,29.96,10.0,West,15.0,-,N/A,,Clear,260,2014-04-09 10:15:00
4:35 AM,46.4,32.0,57,29.96,10.0,West,12.7,-,N/A,,Clear,270,2014-04-09 10:35:00
4:55 AM,46.4,32.0,57,29.96,10.0,West,16.1,-,N/A,,Clear,270,2014-04-09 10:55:00
5:15 AM,46.4,30.2,53,29.95,10.0,West,12.7,-,N/A,,Clear,280,2014-04-09 11:15:00
5:35 AM,48.2,30.2,50,29.95,10.0,West,13.8,-,N/A,,Clear,270,2014-04-09 11:35:00
5:55 AM,46.4,30.2,53,29.95,10.0,West,13.8,-,N/A,,Clear,280,2014-04-09 11:55:00
6:15 AM,53.6,32.0,44,29.95,10.0,West,18.4,-,N/A,,Clear,280,2014-04-09 12:15:00
6:35 AM,53.6,32.0,44,29.96,10.0,WNW,13.8,-,N/A,,Clear,290,2014-04-09 12:35:00
6:55 AM,53.6,32.0,44,29.96,10.0,West,11.5,-,N/A,,Clear,280,2014-04-09 12:55:00
7:15 AM,53.6,32.0,44,29.97,10.0,West,12.7,-,N/A,,Clear,280,2014-04-09 13:15:00
7:35 AM,53.6,32.0,44,29.97,10.0,WNW,9.2,-,N/A,,Clear,290,2014-04-09 13:35:00
7:55 AM,59.0,32.0,36,29.97,10.0,WNW,12.7,-,N/A,,Clear,290,2014-04-09 13:55:00
8:15 AM,62.6,32.0,32,29.96,10.0,West,13.8,-,N/A,,Clear,280,2014-04-09 14:15:00
8:35 AM,64.4,32.0,30,29.96,10.0,West,13.8,21.9,N/A,,Clear,280,2014-04-09 14:35:00
8:55 AM,71.6,30.2,22,29.96,10.0,WNW,16.1,23.0,N/A,,Clear,300,2014-04-09 14:55:00
9:15 AM,73.4,28.4,19,29.96,10.0,WNW,18.4,23.0,N/A,,Clear,300,2014-04-09 15:15:00
9:35 AM,73.4,28.4,19,29.96,10.0,WNW,18.4,27.6,N/A,,Clear,290,2014-04-09 15:35:00
9:55 AM,73.4,32.0,22,29.96,10.0,West,18.4,23.0,N/A,,Clear,280,2014-04-09 15:55:00
10:15 AM,73.4,32.0,22,29.96,10.0,West,13.8,-,N/A,,Clear,260,2014-04-09 16:15:00
10:35 AM,73.4,30.2,20,29.95,10.0,West,20.7,26.5,N/A,,Clear,270,2014-04-09 16:35:00
10:55 AM,77.0,28.4,17,29.94,10.0,West,20.7,-,N/A,,Clear,260,2014-04-09 16:55:00
11:15 AM,78.8,30.2,17,29.94,10.0,WSW,17.3,27.6,N/A,,Clear,250,2014-04-09 17:15:00
11:35 AM,78.8,30.2,17,29.92,10.0,WNW,15.0,28.8,N/A,,Clear,290,2014-04-09 17:35:00
11:55 AM,78.8,26.6,15,29.91,10.0,WNW,19.6,27.6,N/A,,Clear,290,2014-04-09 17:55:00
12:15 PM,78.8,28.4,16,29.90,10.0,WNW,17.3,27.6,N/A,,Clear,290,2014-04-09 18:15:00
12:35 PM,78.8,26.6,15,29.90,10.0,WNW,18.4,26.5,N/A,,Clear,290,2014-04-09 18:35:00
12:55 PM,80.6,26.6,14,29.88,10.0,NW,16.1,26.5,N/A,,Clear,310,2014-04-09 18:55:00
1:15 PM,80.6,28.4,15,29.87,10.0,WSW,20.7,-,N/A,,Clear,250,2014-04-09 19:15:00
1:35 PM,80.6,28.4,15,29.86,10.0,WNW,15.0,26.5,N/A,,Clear,300,2014-04-09 19:35:00
1:55 PM,80.6,28.4,15,29.85,10.0,West,18.4,29.9,N/A,,Clear,280,2014-04-09 19:55:00
2:15 PM,82.4,28.4,14,29.84,10.0,NW,12.7,25.3,N/A,,Clear,310,2014-04-09 20:15:00
2:35 PM,84.2,28.4,13,29.83,10.0,WNW,12.7,35.7,N/A,,Clear,300,2014-04-09 20:35:00
2:55 PM,84.2,26.6,12,29.82,10.0,West,23.0,29.9,N/A,,Clear,260,2014-04-09 20:55:00
3:15 PM,82.4,28.4,14,29.81,10.0,West,23.0,33.4,N/A,,Clear,270,2014-04-09 21:15:00
3:35 PM,80.6,26.6,14,29.80,10.0,West,15.0,-,N/A,,Clear,270,2014-04-09 21:35:00
3:55 PM,82.4,26.6,13,29.80,10.0,WSW,19.6,26.5,N/A,,Clear,250,2014-04-09 21:55:00
4:15 PM,82.4,26.6,13,29.79,10.0,West,20.7,26.5,N/A,,Clear,270,2014-04-09 22:15:00
4:35 PM,82.4,24.8,12,29.79,10.0,WSW,21.9,28.8,N/A,,Clear,240,2014-04-09 22:35:00
4:55 PM,80.6,24.8,13,29.78,10.0,West,17.3,26.5,N/A,,Clear,270,2014-04-09 22:55:00
5:15 PM,80.6,24.8,13,29.77,10.0,West,16.1,-,N/A,,Clear,270,2014-04-09 23:15:00
5:35 PM,80.6,23.0,12,29.77,10.0,West,20.7,25.3,N/A,,Clear,270,2014-04-09 23:35:00
5:55 PM,80.6,23.0,12,29.77,10.0,West,11.5,-,N/A,,Clear,260,2014-04-09 23:55:00
6:15 PM,80.6,24.8,13,29.76,10.0,West,15.0,-,N/A,,Clear,260,2014-04-10 00:15:00
6:35 PM,78.8,23.0,13,29.76,10.0,WSW,11.5,-,N/A,,Clear,250,2014-04-10 00:35:00
6:55 PM,77.0,24.8,14,29.76,10.0,WSW,8.1,-,N/A,,Clear,250,2014-04-10 00:55:00
7:15 PM,71.6,28.4,20,29.75,10.0,WSW,5.8,-,N/A,,Clear,240,2014-04-10 01:15:00
7:35 PM,66.2,26.6,23,29.76,10.0,West,10.4,-,N/A,,Clear,260,2014-04-10 01:35:00
7:55 PM,62.6,28.4,27,29.76,10.0,West,9.2,-,N/A,,Clear,260,2014-04-10 01:55:00
8:15 PM,60.8,26.6,27,29.76,10.0,West,6.9,-,N/A,,Clear,260,2014-04-10 02:15:00
8:35 PM,59.0,30.2,34,29.77,10.0,West,8.1,-,N/A,,Clear,260,2014-04-10 02:35:00
8:55 PM,59.0,30.2,34,29.77,10.0,West,9.2,-,N/A,,Clear,260,2014-04-10 02:55:00
9:15 PM,59.0,30.2,34,29.78,10.0,West,9.2,-,N/A,,Clear,270,2014-04-10 03:15:00
9:35 PM,59.0,32.0,36,29.78,10.0,West,10.4,-,N/A,,Clear,280,2014-04-10 03:35:00
9:55 PM,57.2,32.0,38,29.78,10.0,West,10.4,-,N/A,,Clear,270,2014-04-10 03:55:00
10:15 PM,59.0,32.0,36,29.77,10.0,West,10.4,-,N/A,,Clear,260,2014-04-10 04:15:00
10:35 PM,59.0,32.0,36,29.77,10.0,West,9.2,-,N/A,,Clear,280,2014-04-10 04:35:00
10:55 PM,59.0,30.2,34,29.77,10.0,West,11.5,-,N/A,,Clear,280,2014-04-10 04:55:00
11:15 PM,62.6,30.2,30,29.77,10.0,West,10.4,-,N/A,,Clear,270,2014-04-10 05:15:00
11:35 PM,60.8,30.2,31,29.78,10.0,West,11.5,-,N/A,,Clear,280,2014-04-10 05:35:00
11:55 PM,60.8,30.2,31,29.79,10.0,WNW,9.2,-,N/A,,Clear,300,2014-04-10 05:55:00